Theta_e
330 334 334 326 325 324 318 318 302 311 306 298 296 299 297 305 306 305 302 306 307 313 317 318 317 319 316 314 317 320 320 316 316 310 308 322 334 335 336 335 334 335 335 337 338 341 345 347 347 347 347 347 346 345 344 344 343 343 341 341 341 341 340 339 340 342 341 341 341 341 342 342 341 342 342 342 342 345 347 347 346 346 345 343 342 342 343 342 343 343 343 343 342 341 339 339 338
325 326 324 326 324 321 313 319 307 300 301 296 295 300 300 301 304 303 301 308 310 312 316 317 319 319 319 317 317 323 321 323 324 322 326 332 333 333 336 335 334 334 334 334 337 338 345 346 347 347 346 347 346 344 344 343 342 341 341 343 343 343 343 342 342 342 340 340 342 341 341 340 340 342 341 341 342 345 346 346 346 345 345 345 343 343 342 343 343 343 342 343 341 340 339 338 337
322 324 322 325 321 318 312 312 299 297 297 293 296 298 302 301 304 307 311 312 313 316 318 319 318 318 317 315 317 319 313 326 325 327 326 333 326 329 335 335 334 334 335 335 336 339 344 345 346 346 346 346 346 344 344 342 340 340 340 342 343 342 342 341 342 341 342 342 341 339 341 342 342 342 342 343 343 346 346 344 344 343 342 342 341 341 342 342 342 342 342 341 340 340 339 337 336
326 327 323 320 312 320 308 305 302 298 295 295 295 302 302 304 308 310 312 314 314 316 318 315 314 321 318 315 314 326 323 322 328 327 325 327 327 332 334 334 335 334 335 336 337 340 344 345 345 346 346 346 346 345 344 342 340 339 340 342 342 341 341 342 341 341 342 342 341 339 337 341 341 341 343 342 343 346 346 345 344 344 345 344 344 344 343 342 342 341 341 341 341 340 339 337 336
326 330 325 318 317 311 309 305 300 300 293 295 294 302 303 309 310 311 313 315 315 315 317 316 316 322 322 321 322 317 319 327 327 330 328 331 333 333 333 335 334 333 334 335 338 342 343 344 345 345 346 346 346 344 342 342 342 343 342 341 339 339 340 340 340 339 337 337 338 338 341 340 339 342 341 341 341 344 344 344 344 343 343 342 342 342 341 341 341 340 340 341 340 339 337 336 335
324 321 329 321 311 317 308 299 297 296 298 300 297 298 303 310 311 312 312 315 316 316 317 315 316 316 315 322 327 321 329 320 327 329 329 328 333 335 334 336 331 332 333 335 341 342 343 342 344 345 346 346 345 343 342 342 342 342 341 340 338 341 341 341 339 339 340 339 340 340 342 341 341 341 340 340 341 344 344 345 345 344 342 341 342 341 341 342 341 340 339 339 339 338 336 335 335
322 317 320 323 316 314 302 297 298 297 299 302 299 300 304 310 311 312 311 311 315 315 317 316 318 317 318 320 326 328 332 332 326 330 332 333 335 334 333 330 331 332 333 337 342 343 343 342 345 346 347 346 345 343 343 342 341 342 341 340 339 339 340 341 340 339 339 342 342 342 341 341 341 341 340 340 342 342 342 342 342 342 341 341 340 339 339 340 340 340 339 339 338 337 335 335 334
323 316 317 309 306 305 298 297 299 299 298 301 302 302 306 310 310 310 309 308 309 308 314 318 318 316 317 323 317 326 332 333 332 334 333 333 334 332 334 330 330 331 336 341 342 343 344 342 345 345 346 345 344 343 343 341 341 341 340 339 338 339 342 340 339 339 341 341 341 341 341 341 340 339 339 341 341 342 343 342 342 342 341 341 340 340 340 339 339 340 338 338 337 336 335 334 334
319 317 322 313 303 307 298 296 300 302 301 302 301 307 312 310 310 309 308 309 308 314 312 315 317 311 315 321 319 326 328 334 334 333 333 333 333 334 331 330 330 333 341 342 343 343 342 341 343 345 344 345 345 344 342 340 339 338 338 340 340 340 340 339 339 339 340 340 340 340 340 339 339 338 338 338 338 341 342 342 342 341 341 339 339 338 338 338 338 339 339 338 337 336 335 335 334
314 314 306 309 308 299 297 296 297 299 300 302 302 304 307 309 310 310 308 304 307 309 313 316 317 312 314 317 320 323 325 334 334 332 332 333 333 332 329 331 333 338 340 341 342 343 342 344 340 342 343 344 345 344 343 344 341 338 339 342 342 341 340 337 337 339 340 339 338 338 338 337 337 337 337 338 342 342 341 340 340 340 339 340 339 338 338 337 338 337 337 338 338 336 335 335 334
309 316 318 306 301 297 298 296 298 301 301 303 303 306 307 309 309 309 309 307 307 311 314 315 311 311 314 322 322 330 332 333 332 329 332 333 334 330 328 332 334 339 339 341 342 343 343 343 342 340 342 342 343 344 344 343 341 339 339 342 342 342 340 337 336 336 337 337 336 336 337 338 338 339 338 338 339 340 339 339 339 339 339 339 338 338 337 337 337 337 337 337 337 336 336 335 334
307 308 312 301 298 299 298 297 299 300 302 302 301 306 307 309 311 309 307 304 305 312 313 313 312 315 311 321 320 327 331 332 331 331 333 334 331 332 331 331 335 340 342 341 342 342 342 342 342 342 337 338 339 341 341 342 343 343 343 343 342 341 340 338 337 336 336 336 337 339 339 338 338 339 341 340 341 340 338 338 338 338 337 337 337 338 337 337 336 336 337 337 337 336 335 335 334
312 311 306 302 299 301 300 298 298 299 301 301 301 306 308 308 308 308 306 307 305 307 310 314 315 312 311 318 323 327 327 330 331 332 333 331 331 331 332 331 334 340 341 340 340 341 342 342 341 340 336 333 333 334 337 339 342 344 344 343 342 342 341 339 337 337 339 340 340 340 340 340 339 339 339 339 338 338 339 340 338 338 338 337 337 337 338 336 336 336 336 336 335 335 334 334 333
314 314 309 301 306 303 300 300 298 298 298 303 304 307 310 308 310 309 306 305 304 310 315 315 312 314 317 321 320 321 326 331 331 333 332 333 332 329 330 331 334 336 338 340 340 341 341 341 341 339 337 338 336 333 332 336 340 342 342 342 342 342 341 341 341 342 342 342 341 340 339 339 338 338 338 338 338 337 335 337 338 338 338 337 337 337 337 336 336 335 335 334 334 334 333 332 332
314 312 308 306 300 302 303 298 297 296 297 302 307 307 309 309 309 307 308 307 309 317 318 321 323 312 308 313 317 321 327 330 331 332 333 333 332 329 330 332 332 331 332 338 339 339 340 340 340 339 337 337 336 335 335 333 333 338 340 340 340 341 340 339 339 338 338 339 337 336 335 333 333 333 334 335 335 336 334 332 335 337 336 336 335 335 335 334 334 334 333 333 333 333 332 331 331
317 309 308 303 298 300 302 300 300 298 298 303 306 309 308 309 310 307 308 310 311 317 314 311 317 314 320 322 323 326 329 331 332 333 332 331 331 330 330 329 328 328 329 330 335 337 339 339 339 338 338 337 337 335 335 335 331 332 336 337 337 337 337 336 335 333 332 332 331 331 329 329 329 329 329 330 330 332 331 329 332 335 334 334 335 335 333 333 333 333 332 332 331 330 331 331 332
318 316 303 300 297 300 301 300 298 293 299 302 306 307 306 305 309 309 309 312 310 310 312 317 313 321 322 326 327 329 330 331 331 332 331 328 326 324 325 325 326 326 331 329 328 335 335 338 339 338 339 338 337 336 335 335 331 329 330 331 333 334 334 333 330 326 324 324 325 325 327 330 329 328 330 330 325 326 324 327 332 336 334 335 334 335 334 333 332 332 332 330 330 331 330 330 329
317 306 302 299 300 301 302 299 300 302 299 301 304 307 306 303 306 308 310 309 309 310 309 318 318 320 324 329 330 330 331 330 331 330 328 326 324 321 321 323 324 324 325 326 328 329 331 330 332 334 338 338 337 337 337 335 333 334 334 333 332 330 328 327 328 330 333 328 324 326 330 329 327 328 329 333 328 329 326 325 329 334 335 334 334 334 334 333 332 332 332 331 331 331 328 320 321
310 304 303 299 301 301 303 302 302 301 299 302 303 305 306 305 307 307 305 304 305 308 308 315 314 319 320 326 329 329 329 329 329 329 327 325 323 322 321 322 323 325 324 325 327 328 328 328 329 328 331 335 335 336 336 334 334 334 334 334 334 330 331 331 331 331 330 329 328 328 328 327 327 330 330 330 327 321 325 323 327 329 330 330 332 332 332 332 332 331 330 329 331 329 322 321 325
308 304 300 304 304 302 303 303 302 302 303 302 302 302 303 306 307 309 305 303 305 303 304 309 311 315 316 325 328 328 328 328 328 327 326 325 324 323 321 322 322 324 325 325 326 330 328 327 327 328 328 329 332 333 336 333 331 332 333 332 333 333 332 333 331 331 330 330 329 329 327 327 328 327 329 329 326 324 322 322 324 325 326 327 328 327 327 329 330 330 329 329 326 323 322 324 322
308 304 301 304 302 302 301 303 302 302 302 302 302 302 301 305 306 307 306 302 302 304 306 309 309 315 316 323 327 327 327 326 327 327 326 325 325 325 323 322 321 324 325 326 326 328 327 328 327 328 328 328 330 330 332 330 332 330 329 328 330 329 331 330 329 329 329 330 330 328 327 327 329 327 326 326 326 327 324 323 322 324 325 325 322 325 323 324 322 322 321 321 321 322 324 321 321
310 304 306 303 303 301 302 301 301 301 302 303 302 301 301 304 304 303 304 300 300 304 307 308 309 317 318 320 326 326 326 325 326 325 325 325 325 325 325 323 322 324 325 324 325 326 328 328 327 328 328 327 329 328 329 328 330 328 327 327 328 329 329 328 328 329 328 329 328 327 327 326 326 326 326 324 326 328 327 326 325 326 326 326 323 325 326 325 322 325 325 324 323 322 322 322 321
302 306 305 304 302 300 303 301 300 299 303 302 300 301 302 302 301 303 302 302 304 307 308 310 314 321 321 322 327 324 325 324 325 324 325 325 325 326 326 326 321 321 323 322 324 325 328 328 328 328 327 327 328 328 328 327 327 327 327 327 327 328 329 329 327 327 328 328 327 327 326 325 324 325 325 325 324 325 326 326 326 326 326 324 322 324 323 324 324 322 322 322 321 320 322 321 322
307 304 307 305 305 301 303 301 301 300 301 301 302 304 301 301 298 303 301 304 306 306 308 311 320 323 322 322 326 324 325 325 325 326 326 326 326 327 327 327 323 323 323 322 323 324 326 328 328 328 327 327 327 327 327 326 325 326 327 326 326 326 328 327 326 327 329 328 327 326 325 325 324 324 324 323 324 324 325 324 323 324 324 322 323 321 323 321 321 320 320 319 320 319 319 321 322
306 305 309 307 305 302 303 301 300 302 302 302 303 301 302 303 301 301 300 303 305 307 306 311 320 322 322 323 325 325 324 325 325 326 327 327 328 328 328 328 326 325 323 322 323 324 326 328 328 327 327 327 327 326 326 326 325 325 326 325 325 326 327 327 326 326 327 327 327 326 325 324 324 324 325 324 325 324 323 323 323 323 323 322 321 321 321 321 320 320 318 319 320 322 321 322 322
308 308 307 303 304 307 304 304 304 303 304 303 302 303 306 303 302 300 302 303 304 307 306 310 317 320 320 322 324 324 324 325 326 326 326 327 328 328 327 328 327 325 326 323 323 323 325 327 328 328 327 327 327 327 326 326 326 325 326 326 325 324 325 327 326 325 326 326 327 326 325 325 324 322 324 323 326 324 323 321 321 322 322 322 321 322 321 321 321 320 320 321 322 323 323 324 322
310 309 308 304 304 306 305 304 307 303 304 301 301 304 306 301 302 296 304 306 305 306 307 308 311 317 317 320 323 323 324 325 326 327 327 328 327 327 327 328 327 327 327 324 324 323 325 326 326 327 328 326 327 326 326 326 326 326 327 326 326 326 325 327 326 326 326 325 325 326 325 325 325 324 324 324 325 325 325 324 323 323 322 322 323 324 323 322 323 322 322 323 323 323 323 323 322
310 310 306 305 307 308 307 305 306 308 305 304 305 304 305 302 300 298 303 306 306 305 307 308 307 310 312 317 320 321 324 326 327 327 326 326 326 327 326 326 327 327 327 326 325 325 325 326 326 326 327 327 327 327 326 327 327 326 327 327 327 327 327 326 326 325 324 325 326 327 326 325 324 324 325 326 325 326 325 324 324 323 324 323 324 324 324 323 322 323 325 324 324 323 324 322 321
306 306 302 304 307 306 308 306 307 308 307 307 308 302 301 302 298 302 304 304 304 305 305 307 308 308 310 312 317 319 321 324 326 326 327 328 328 328 327 328 328 328 328 329 328 326 325 325 326 326 326 327 327 327 327 327 327 328 327 327 328 329 326 326 326 326 326 325 325 327 327 326 325 325 326 327 325 326 325 325 324 325 325 325 325 324 324 324 323 322 322 323 323 323 321 322 322
307 306 304 304 303 302 308 309 308 306 308 306 306 295 301 305 307 306 305 303 303 303 303 306 307 307 308 311 315 318 320 322 325 326 327 328 328 328 327 328 328 328 328 328 330 328 327 328 327 327 326 327 326 327 327 327 327 327 327 327 327 328 326 325 325 327 326 326 327 327 327 326 325 325 326 326 325 324 324 325 324 325 324 325 326 326 322 322 322 322 323 322 322 323 321 322 320
302 306 305 299 298 299 307 307 304 302 304 304 307 296 300 306 303 307 304 305 303 302 302 306 308 307 307 311 313 317 319 320 324 326 327 328 328 328 327 328 329 329 328 328 329 329 328 328 328 327 325 326 325 325 325 326 327 327 327 327 327 327 327 326 325 326 326 326 327 327 328 326 326 326 326 327 326 325 324 323 323 324 326 324 324 323 324 324 324 323 320 321 321 320 318 319 319
306 299 296 300 298 296 299 305 302 300 299 303 303 295 299 306 301 303 305 304 303 301 302 304 307 307 308 311 313 316 318 320 322 326 327 327 328 327 327 328 329 329 329 329 329 330 329 329 327 326 325 326 326 325 325 326 327 327 327 325 326 327 326 326 325 326 326 325 326 327 328 327 327 327 327 327 327 326 324 324 324 325 324 325 325 325 326 323 321 322 322 321 318 318 318 319 319
304 300 297 297 299 297 298 301 304 305 300 301 301 297 298 304 302 302 304 304 302 301 301 302 306 307 308 310 313 314 315 318 320 323 326 327 327 327 328 328 328 329 330 330 330 330 329 329 327 327 326 325 326 325 325 325 327 328 327 326 327 327 326 325 325 326 326 326 325 327 328 327 327 327 327 328 327 327 325 325 325 326 326 324 324 324 323 324 322 322 319 319 319 317 317 317 318
298 300 297 301 299 298 296 298 299 303 298 297 301 298 299 302 304 299 300 302 302 300 301 301 302 305 307 308 311 312 313 315 318 320 323 326 326 327 328 326 329 329 330 330 330 330 330 329 329 329 328 327 327 326 326 326 327 327 327 327 326 328 327 326 326 326 326 325 325 325 329 328 327 327 326 327 327 327 326 325 325 326 326 325 323 322 322 322 322 321 318 319 321 319 318 316 316
296 296 296 298 301 301 299 295 299 300 299 297 297 297 298 302 303 298 299 301 302 301 300 300 300 302 306 308 309 311 312 313 317 320 322 324 326 326 327 327 328 329 330 330 330 330 330 329 329 328 329 329 328 327 326 327 327 326 327 328 327 327 328 327 326 325 325 326 325 326 328 328 326 327 326 326 326 325 325 326 326 325 326 324 324 324 322 323 321 320 320 320 320 319 318 317 317
300 300 299 299 297 298 298 302 298 300 296 295 296 294 296 299 301 304 302 300 300 300 299 300 300 299 304 307 307 309 311 312 316 320 322 323 325 326 326 327 328 329 329 329 328 329 329 329 329 329 329 330 330 329 328 327 327 325 325 325 326 326 327 326 328 327 327 326 326 327 328 329 328 328 327 326 326 325 325 325 326 326 325 325 323 322 321 320 321 320 320 320 319 319 318 319 318
305 304 302 299 300 301 303 297 298 301 297 295 297 298 299 299 299 301 303 302 299 299 299 299 299 299 300 302 306 307 309 311 314 318 322 322 325 326 326 326 326 326 327 328 328 328 329 328 327 328 330 330 329 329 328 327 326 326 325 326 326 326 327 327 327 328 329 328 329 330 329 329 330 329 328 327 326 324 326 326 326 325 326 325 324 323 322 321 321 322 321 320 319 317 318 317 317
304 303 302 299 301 299 302 296 298 298 296 295 297 296 297 299 302 302 301 303 301 299 299 299 299 300 301 301 301 306 308 311 314 315 320 322 323 324 325 324 323 324 326 327 327 328 328 329 328 328 329 330 329 329 329 329 328 327 326 326 327 327 326 326 325 327 329 330 330 331 331 330 331 330 328 329 327 326 326 326 325 325 325 324 324 324 323 319 321 321 321 318 319 318 317 319 319
304 302 301 300 299 302 297 296 297 297 297 293 297 296 298 300 302 303 302 301 302 301 301 300 300 300 301 302 302 303 305 309 311 314 317 320 322 323 324 324 325 326 326 326 327 327 328 328 328 328 328 329 329 329 329 329 329 329 328 327 327 326 327 328 328 327 328 329 330 330 331 331 331 331 330 328 329 328 327 326 326 326 326 325 324 323 322 322 322 322 321 320 317 319 317 318 318
302 300 297 294 301 298 293 293 296 296 296 295 293 291 293 297 297 298 301 303 303 304 303 302 302 301 301 302 303 304 305 307 310 314 317 319 321 323 323 323 324 324 324 325 326 326 327 327 328 327 327 328 328 328 326 329 330 330 329 329 328 328 326 327 328 328 328 329 329 330 331 332 331 331 332 330 330 330 328 327 327 326 326 326 325 324 323 323 323 323 323 322 320 317 317 317 317
302 302 298 298 299 300 297 292 295 295 296 297 293 292 293 296 297 298 300 302 303 304 304 303 302 303 303 304 304 305 306 307 308 313 316 318 320 322 323 324 324 323 324 324 325 326 327 327 328 328 327 327 328 327 326 328 328 328 329 329 328 328 326 326 327 327 329 328 329 329 331 332 332 331 332 332 329 330 330 329 328 328 327 326 326 325 324 324 324 324 324 323 321 319 316 316 317
299 301 302 301 302 301 295 295 293 290 289 294 294 285 287 294 296 297 300 300 300 302 303 303 302 302 302 302 303 305 306 307 308 308 314 317 319 321 322 323 323 323 324 324 325 325 326 326 326 327 327 327 327 328 327 327 327 327 327 327 325 325 325 325 325 326 327 327 327 330 331 333 333 332 331 332 331 329 330 330 329 328 327 327 326 326 326 325 325 324 324 324 322 321 318 316 313
296 298 303 303 303 305 298 295 295 287 285 291 293 285 284 293 294 297 299 300 300 301 301 303 303 302 302 302 303 304 305 305 305 306 306 313 315 318 320 321 323 323 324 325 325 325 325 325 326 327 327 327 328 328 328 326 327 327 327 327 327 326 325 325 327 327 328 328 328 328 330 332 333 332 331 331 332 330 330 330 330 329 328 328 327 326 326 325 325 325 325 324 323 321 319 315 315
296 303 304 303 303 302 299 298 296 293 296 294 292 291 282 285 291 296 298 296 299 300 301 302 303 304 303 303 303 303 304 305 305 304 305 307 312 315 317 320 321 322 324 324 324 325 325 325 326 327 327 326 328 328 328 327 326 326 326 326 326 326 326 325 327 328 329 328 328 328 329 330 331 333 332 331 331 331 330 330 330 330 329 329 327 327 326 326 325 325 324 325 324 321 320 318 316
300 302 304 302 302 302 302 298 295 293 288 285 288 292 284 283 291 297 297 294 295 297 300 302 303 303 303 303 304 304 304 305 305 305 304 305 307 312 315 317 320 321 321 323 324 325 325 325 325 327 327 327 328 328 328 328 326 326 326 326 325 325 326 326 325 326 327 327 326 327 328 329 330 330 331 331 331 331 329 330 330 330 329 329 326 327 326 326 325 324 323 322 322 320 320 319 319
299 303 304 304 303 302 302 296 294 292 288 284 288 290 284 286 292 293 293 294 295 296 299 301 302 302 302 303 303 305 305 304 305 306 306 305 305 307 311 313 315 318 320 321 322 323 324 325 325 325 326 327 327 328 328 328 327 325 326 325 325 325 324 324 324 324 325 326 325 324 324 327 328 328 329 329 330 330 329 329 330 330 329 329 324 327 326 326 325 325 324 323 321 320 320 320 320
303 302 299 298 299 295 294 292 289 287 284 285 291 291 289 282 289 293 293 294 296 297 297 300 302 302 302 302 303 303 304 304 304 304 305 306 306 306 307 306 309 312 316 319 320 322 322 324 324 324 325 327 326 327 328 328 328 327 326 326 325 324 324 324 323 323 323 323 324 324 324 325 327 328 328 328 329 329 329 328 329 330 329 327 325 326 326 326 325 324 323 322 321 321 320 320 319
302 297 295 295 293 295 292 288 290 285 284 287 291 292 291 283 286 294 298 296 298 298 297 299 300 301 302 302 303 303 304 303 304 303 302 301 301 302 303 304 304 307 311 314 316 318 320 322 323 323 323 325 326 326 327 328 328 327 327 326 325 325 324 324 323 323 323 323 324 324 324 324 325 326 327 327 327 329 329 329 328 328 328 328 326 326 327 327 326 324 323 322 322 321 321 320 321
299 298 296 290 286 286 284 286 282 283 283 286 289 292 287 287 292 295 296 294 296 298 299 299 299 301 302 301 304 303 301 300 301 301 301 300 299 300 299 300 300 302 306 309 311 313 316 318 320 321 322 323 325 325 326 326 326 327 327 326 325 324 324 324 323 323 323 323 323 323 323 323 324 324 325 326 327 328 329 329 328 328 327 328 328 327 326 326 325 324 322 323 322 321 322 321 321
298 296 292 289 284 283 283 285 286 284 284 284 284 289 284 289 292 298 298 300 298 298 298 298 299 300 298 298 300 300 299 297 299 300 300 300 300 300 300 300 301 301 301 304 305 307 309 312 314 317 319 321 322 323 324 324 325 326 326 326 325 324 323 323 324 323 323 323 323 323 323 324 324 324 324 325 326 328 329 330 329 328 327 327 326 327 326 325 323 323 322 322 322 323 322 322 321
297 300 296 291 288 285 282 285 281 280 280 282 288 283 281 283 288 292 293 296 296 298 299 298 299 299 298 299 300 300 300 299 299 299 301 302 303 303 303 302 301 300 300 301 302 303 304 306 309 312 314 315 318 320 321 323 324 324 325 325 325 324 323 323 324 324 323 323 323 323 323 323 323 324 324 324 324 326 328 329 329 328 326 324 324 325 324 323 322 322 322 322 321 322 321 320 319
297 299 299 293 289 293 286 285 283 280 279 278 280 283 286 290 294 296 295 294 294 295 296 296 295 297 298 298 298 298 299 300 301 301 301 301 301 301 302 303 303 303 301 301 301 301 302 304 304 307 309 310 314 316 319 321 322 322 323 323 324 323 321 322 321 322 323 323 323 323 323 323 323 322 323 324 325 326 327 327 327 327 326 324 323 324 323 322 322 322 320 320 319 319 319 318 317
294 297 290 294 299 297 288 284 285 283 282 281 283 283 287 293 296 298 298 294 294 294 294 294 294 295 296 296 297 297 299 299 299 302 300 300 300 300 300 301 302 302 302 302 302 301 301 302 303 304 305 307 310 312 315 318 319 319 320 321 321 321 321 320 321 320 321 322 322 323 322 322 322 322 323 324 325 327 327 327 326 325 325 324 323 322 322 322 322 320 318 317 317 316 315 316 312
296 290 295 300 300 298 291 286 284 282 280 281 282 282 282 286 283 295 297 295 293 293 294 294 294 294 295 296 297 299 300 300 301 301 300 300 300 300 301 301 301 302 302 302 302 302 302 303 303 303 304 305 307 309 312 314 315 316 316 318 318 319 319 319 319 319 320 320 321 321 321 321 322 323 323 323 325 326 326 320 325 324 323 323 322 321 321 320 319 317 316 316 316 314 313 308 308
298 296 303 294 285 287 288 286 281 277 277 280 280 282 283 285 288 291 292 293 294 294 294 293 294 295 295 296 298 299 300 300 298 298 297 298 298 299 299 301 301 300 301 301 301 301 302 302 303 305 303 305 306 308 309 311 312 314 315 315 315 317 318 318 319 319 319 319 319 320 320 321 321 321 321 321 322 323 324 323 323 322 321 320 320 319 318 318 318 314 313 312 310 310 307 305 304
300 299 297 300 293 288 286 288 285 282 280 278 278 281 280 289 291 292 294 296 296 296 295 295 295 296 296 297 298 298 299 299 299 299 299 299 299 299 300 300 299 299 298 298 299 299 300 301 302 302 303 304 308 307 308 310 311 310 312 312 312 313 314 316 316 317 319 319 318 318 319 316 317 317 320 318 318 318 317 317 316 317 316 315 315 315 315 315 315 313 310 307 305 305 304 303 302
289 292 291 293 290 290 288 289 287 282 279 280 280 279 283 290 296 296 296 297 298 297 296 296 297 297 297 297 298 300 300 299 299 298 298 298 298 299 299 299 299 297 297 298 299 300 300 300 300 301 302 303 304 306 308 308 308 309 309 309 310 311 312 312 313 313 313 314 314 313 315 315 317 316 317 314 314 315 315 314 314 312 313 312 312 311 311 312 312 310 308 306 304 304 302 300 300
293 293 291 294 289 283 284 282 289 286 284 280 280 279 284 293 296 298 297 294 295 296 296 297 297 297 297 298 299 298 298 298 298 297 297 296 297 299 299 299 296 297 296 298 299 300 300 300 300 300 300 301 302 302 305 306 306 306 306 306 307 308 309 310 311 311 310 311 311 312 313 312 312 311 313 314 314 312 311 313 313 312 310 310 310 311 309 311 310 307 304 304 303 302 301 298 298
Wind_Speed
8 7 5 4 4 4 4 2 2 2 1 3 3 3 2 1 3 4 6 3 5 4 3 4 5 7 7 2 10 11 10 8 2 2 1 3 3 3 10 8 9 8 8 8 7 6 7 9 11 12 12 12 12 12 13 13 12 12 12 12 13 13 13 12 13 14 13 13 12 13 12 12 14 15 16 14 14 16 16 18 19 17 18 18 18 17 18 17 18 19 19 19 19 18 18 17 18
7 6 4 3 3 3 2 1 2 4 4 2 4 6 3 3 1 5 4 5 7 4 1 4 6 3 1 3 4 8 13 10 8 6 5 5 6 5 9 8 8 9 7 7 7 7 8 8 10 11 13 13 12 12 13 13 12 11 12 14 14 13 14 14 15 14 13 13 15 14 13 13 14 15 14 14 15 15 15 16 16 16 17 18 18 18 17 17 18 18 18 18 18 18 17 17 17
6 6 5 3 4 2 4 1 3 4 3 5 4 3 4 3 3 6 10 9 8 5 5 5 3 2 1 3 8 7 3 10 11 8 5 4 7 6 8 8 6 8 9 7 7 8 7 7 10 12 13 13 13 13 13 12 12 11 11 14 13 13 13 13 14 14 14 14 14 12 14 14 14 14 14 14 14 15 15 16 15 16 16 16 17 17 17 17 17 17 17 18 17 17 17 17 16
4 5 3 3 3 1 2 1 3 4 5 5 3 1 2 4 11 9 8 7 4 4 3 3 1 1 6 9 5 11 8 6 7 8 6 5 5 6 7 8 7 4 4 6 7 7 7 8 10 12 12 12 13 13 13 12 12 11 11 14 12 12 13 13 14 14 15 15 15 13 12 14 14 14 14 14 15 15 15 14 16 15 16 16 17 17 17 17 17 17 17 17 17 17 17 17 16
3 3 4 2 1 2 2 2 3 2 3 4 4 1 1 9 9 9 6 5 3 3 1 3 2 2 2 3 5 3 4 7 8 5 5 4 10 5 9 6 5 4 3 8 8 9 7 10 9 10 12 12 13 12 12 13 13 12 12 12 10 12 13 12 13 12 12 11 13 13 13 12 13 14 13 13 14 15 13 13 14 15 15 16 16 17 17 16 17 17 16 16 16 17 17 16 16
6 4 3 2 1 0 1 2 4 2 2 4 4 2 1 8 10 8 6 5 4 3 6 1 3 4 3 7 4 4 2 1 7 7 7 7 9 10 7 4 6 4 5 7 10 7 6 10 9 9 12 13 13 12 12 13 13 13 12 12 10 13 13 12 11 12 14 12 13 13 13 13 12 12 13 12 13 14 14 16 16 16 15 15 16 16 16 16 17 16 16 16 16 16 16 16 16
3 3 2 1 3 1 2 4 3 5 6 4 3 3 4 8 8 8 7 4 2 3 1 1 3 2 6 2 7 6 9 6 4 8 7 7 9 9 6 6 4 5 6 9 9 8 8 10 10 10 10 11 12 12 12 12 12 12 12 12 11 10 12 12 11 12 13 14 13 13 12 12 11 11 11 12 13 13 14 14 15 14 15 16 16 15 15 16 16 15 15 15 16 16 15 15 15
3 0 2 2 3 1 3 4 2 5 2 5 3 4 4 8 6 5 5 4 3 2 2 3 1 2 4 6 5 1 9 12 10 14 11 9 8 8 4 6 5 5 10 10 8 7 10 10 9 7 9 11 11 12 13 12 11 11 11 11 11 12 12 12 12 12 12 12 13 13 12 11 11 10 11 12 12 15 14 14 14 14 15 15 15 15 15 15 15 15 15 15 15 14 14 14 14
3 2 1 2 3 2 3 5 1 4 4 4 5 3 4 7 4 5 3 5 4 3 4 2 2 1 2 9 8 5 4 12 9 9 11 10 7 4 5 6 5 7 11 10 8 7 7 9 8 6 8 9 9 11 12 11 10 9 8 11 11 11 11 10 12 12 12 12 12 12 12 11 11 10 9 11 12 13 14 14 14 14 15 14 14 14 13 14 14 14 14 14 14 13 13 13 13
3 2 2 1 2 4 4 4 1 3 5 4 5 4 2 2 4 3 5 5 4 3 3 2 2 1 1 10 8 4 3 9 6 9 8 9 6 4 6 6 5 10 9 9 8 7 6 10 8 6 7 8 8 8 9 8 9 8 10 12 12 10 10 9 10 13 12 11 12 11 11 11 11 10 9 10 13 13 13 13 13 13 14 14 13 13 13 13 13 13 13 13 12 12 12 12 12
2 2 1 1 3 4 4 2 5 3 5 4 4 3 3 0 3 2 3 7 3 3 2 3 1 2 0 7 5 2 7 7 6 10 9 7 4 5 5 5 5 9 8 9 9 7 6 6 8 8 9 8 8 8 7 7 9 8 9 12 12 10 10 9 9 9 10 10 9 10 10 11 10 10 9 8 11 11 12 12 12 12 12 13 12 12 12 12 12 12 12 11 11 10 10 11 11
1 2 2 3 5 4 3 3 4 6 5 5 4 3 1 2 1 2 4 4 1 6 3 3 1 2 2 7 3 5 7 7 7 9 8 5 4 5 5 4 4 10 10 10 9 8 6 6 6 8 10 9 8 8 7 6 7 9 12 12 11 10 10 10 9 9 9 9 10 11 11 10 10 10 11 9 7 8 11 11 11 11 11 12 12 11 11 12 11 11 10 10 9 10 9 10 9
1 4 2 3 4 3 2 0 1 3 3 4 4 3 2 3 2 2 3 2 3 3 5 1 3 1 0 5 4 6 8 7 8 7 8 3 5 6 4 3 4 10 10 8 10 9 8 5 6 6 8 11 9 9 8 7 8 8 9 10 9 10 9 10 9 9 9 12 12 12 11 11 10 10 11 11 11 11 10 8 10 12 12 11 11 11 10 10 10 10 9 9 9 9 9 9 9
0 2 3 3 3 1 3 1 3 0 3 3 3 2 3 2 1 2 5 2 2 3 3 5 1 2 5 7 4 5 7 9 11 9 7 4 4 4 5 2 4 8 6 9 9 10 8 7 6 5 7 7 6 7 8 8 8 8 8 7 8 8 8 7 9 12 11 11 12 11 10 10 10 10 10 10 10 10 10 9 12 12 11 11 10 10 10 9 9 9 9 9 9 9 9 8 7
2 3 1 2 5 1 0 3 2 3 2 3 1 2 2 4 4 1 5 4 6 3 3 3 2 1 2 1 5 7 9 11 11 7 6 6 3 4 5 3 2 5 4 9 8 9 9 8 8 6 5 5 6 5 4 6 8 8 9 9 9 9 9 10 11 10 11 10 10 10 8 9 9 10 9 9 9 8 10 10 9 8 9 10 9 9 8 8 8 8 8 8 8 8 7 7 5
1 2 1 2 4 2 2 3 1 4 1 2 2 2 2 3 2 1 2 3 3 2 1 2 2 2 3 7 8 12 13 12 10 7 6 6 3 6 5 3 2 2 2 4 7 7 8 8 7 7 6 7 6 6 6 6 7 8 9 9 9 9 9 10 10 10 10 10 10 10 10 7 7 7 10 8 10 10 9 8 9 6 7 7 8 8 8 8 8 7 7 7 6 5 4 4 3
1 0 1 2 4 4 1 2 3 3 3 3 3 2 2 3 1 2 2 1 2 2 1 2 2 1 6 6 14 15 13 12 11 9 5 5 4 5 4 4 4 2 1 2 4 7 7 9 9 7 6 7 6 8 7 6 8 9 7 8 9 9 9 9 9 9 8 8 8 9 9 5 4 4 6 5 7 6 8 9 9 9 6 6 6 7 7 7 7 6 5 4 2 1 1 1 2
1 1 2 3 6 1 4 6 2 2 4 3 3 1 2 4 2 2 0 1 1 4 2 5 5 6 5 8 12 13 13 13 12 10 6 5 5 5 4 3 5 4 4 3 3 3 6 7 7 8 7 6 4 7 6 5 5 8 6 5 4 6 7 8 7 5 6 3 7 6 5 5 6 4 4 7 5 5 6 8 8 7 8 7 6 6 6 5 5 5 3 1 2 3 1 1 3
1 2 2 3 3 0 2 4 8 3 4 5 4 2 2 4 1 2 1 4 4 4 3 6 5 6 3 7 12 12 12 11 12 10 9 6 6 7 6 5 6 5 4 4 5 3 2 4 3 5 6 7 5 6 6 6 6 5 6 5 5 5 5 6 5 5 4 4 4 4 5 6 4 4 5 5 5 7 6 7 7 7 6 5 4 3 3 3 3 3 1 2 5 5 2 4 5
1 0 1 0 3 4 4 5 5 6 4 4 4 3 1 2 0 2 1 3 6 6 5 6 7 8 6 9 11 11 11 11 11 10 9 8 5 7 6 6 5 7 5 4 6 5 4 4 4 3 4 4 5 6 6 7 5 5 7 6 6 5 5 5 5 6 5 5 5 5 6 5 7 5 9 12 9 5 4 5 6 7 6 3 3 3 2 2 2 1 2 4 4 3 4 5 0
1 2 2 1 2 1 4 5 4 5 5 2 2 1 2 2 1 1 0 2 4 4 5 9 9 12 11 10 12 11 10 11 10 10 10 9 6 5 6 7 5 6 6 5 4 6 6 5 5 3 5 4 4 4 6 6 6 6 6 7 7 6 6 6 5 6 5 7 6 5 3 5 6 6 5 6 5 5 4 4 4 4 3 3 5 3 3 2 2 2 2 2 4 4 4 2 2
2 6 3 1 1 2 3 6 5 3 1 1 2 1 3 3 1 2 3 3 1 2 5 4 3 15 15 12 13 9 10 9 11 10 11 10 10 7 5 4 7 6 6 5 5 4 6 6 6 4 6 4 4 3 3 4 6 4 4 5 7 6 7 6 4 6 4 6 5 2 5 3 3 5 4 4 5 6 6 5 5 5 5 4 5 4 5 4 4 5 4 5 5 3 1 1 1
3 3 3 1 1 2 1 4 2 3 1 1 3 4 3 2 3 3 4 5 1 2 4 5 7 15 13 12 13 10 11 11 11 10 11 11 10 8 6 5 8 7 7 6 6 4 5 5 6 4 5 5 6 4 5 4 5 4 4 5 4 4 7 6 4 6 4 4 4 2 5 5 2 5 5 4 3 5 5 7 7 6 5 6 6 6 4 4 5 5 5 5 0 2 0 1 2
6 4 4 3 1 4 2 4 3 0 4 2 2 2 2 2 3 3 2 3 4 3 4 5 8 12 12 12 13 14 13 14 12 11 9 10 10 10 7 7 5 6 7 6 7 6 6 6 7 6 5 5 5 4 5 5 3 3 5 5 3 3 5 5 4 6 5 6 4 2 5 5 4 3 4 3 2 2 4 3 3 4 3 3 5 2 4 3 3 3 0 1 0 3 3 3 3
8 5 4 3 3 5 3 3 2 1 1 1 1 2 3 4 1 2 3 6 5 3 4 5 8 10 9 10 11 10 11 10 10 10 7 6 8 9 7 7 4 7 8 6 7 7 6 5 7 8 5 7 5 4 5 5 5 3 3 4 5 3 1 5 5 5 6 6 5 3 4 5 6 4 5 5 4 4 3 2 1 2 3 3 2 1 1 2 2 2 2 3 4 5 4 3 2
6 8 1 2 1 1 3 3 3 4 0 1 1 4 5 1 3 2 12 11 6 5 4 6 6 9 8 10 10 9 10 11 10 10 11 7 8 10 9 8 5 8 8 7 8 7 8 6 7 8 8 7 6 4 5 5 6 5 3 5 5 3 2 4 4 5 5 7 6 4 5 4 5 6 6 6 6 5 4 4 3 3 3 3 3 4 4 4 4 3 3 3 3 4 2 1 0
6 6 2 2 3 3 3 3 4 5 2 3 3 3 4 1 1 3 4 3 4 6 4 5 5 7 7 8 9 9 10 11 13 10 8 8 8 10 10 9 6 6 9 8 7 6 9 8 8 8 9 7 7 6 5 4 6 6 5 5 5 5 4 5 2 3 4 5 6 5 4 4 3 5 6 5 5 5 5 5 5 4 4 3 4 4 4 1 1 4 3 1 1 2 3 3 1
1 4 2 1 3 4 1 3 5 2 3 8 5 5 4 2 3 6 3 1 1 4 4 5 4 5 6 7 9 8 9 9 9 9 12 12 10 10 10 10 9 6 8 9 8 6 9 9 10 9 8 9 9 7 7 6 6 6 5 6 6 6 5 5 3 3 4 4 4 6 4 4 4 3 5 5 5 5 5 6 6 5 5 4 4 4 4 3 3 1 1 1 1 2 3 3 4
4 2 4 6 6 7 8 7 6 4 5 3 3 3 7 6 7 6 9 4 4 5 5 5 5 5 5 5 7 7 8 9 9 9 12 12 10 9 10 10 9 8 5 9 9 8 9 8 9 10 8 9 7 8 7 6 6 6 6 6 6 6 6 5 5 5 5 3 3 6 5 5 4 4 3 4 4 6 6 6 5 6 6 6 6 4 3 1 1 2 2 1 1 3 4 4 4
3 1 2 3 4 7 9 8 7 7 3 6 4 5 7 7 12 12 11 8 6 5 5 5 5 5 5 5 6 6 6 7 10 10 10 10 9 10 10 10 9 8 7 6 10 11 8 6 7 7 9 10 9 7 7 6 6 6 6 6 5 7 6 6 5 6 6 5 4 4 5 4 5 5 3 3 3 3 3 5 5 5 4 4 4 4 2 1 2 3 4 4 4 6 5 6 4
3 4 2 2 4 3 8 9 7 6 2 6 3 6 5 3 4 5 7 8 7 5 5 6 5 5 5 5 5 6 7 7 10 11 10 9 9 8 10 9 10 10 6 6 8 11 10 8 8 7 8 9 9 8 8 8 6 7 7 7 6 7 7 7 6 5 6 6 6 6 5 5 5 5 4 5 4 4 3 3 3 4 5 4 3 4 4 4 5 4 3 3 4 3 3 3 2
4 5 4 4 5 2 3 3 10 7 0 3 3 6 8 5 2 5 6 7 6 5 6 6 6 6 5 5 5 5 5 6 6 8 9 9 9 8 10 10 11 11 10 8 8 8 11 11 9 6 9 9 10 9 7 8 8 7 7 7 6 6 7 6 6 6 6 7 7 6 6 6 5 5 5 4 6 5 4 5 5 4 3 5 4 4 3 4 4 4 4 3 1 3 4 4 4
5 5 3 7 6 2 1 4 5 5 3 4 8 5 1 6 5 5 5 7 5 5 5 6 9 8 7 5 5 5 5 6 6 7 9 9 8 7 9 10 11 12 10 9 9 9 9 10 12 9 10 9 9 9 6 5 7 7 7 7 7 7 7 7 7 7 6 6 7 7 8 7 6 6 5 5 5 6 6 5 6 6 4 4 5 5 4 5 4 3 2 2 3 2 2 4 5
6 5 4 5 9 5 3 1 3 3 4 5 9 8 6 4 2 4 4 5 6 5 5 5 6 8 8 7 6 6 6 6 9 9 9 9 7 8 7 8 9 11 10 10 9 11 11 9 10 10 8 9 7 9 8 7 6 6 7 7 7 7 7 7 7 7 7 7 6 7 8 8 7 6 6 5 5 5 6 6 4 6 6 5 5 4 5 3 3 3 3 3 5 4 4 2 2
8 7 5 4 6 7 5 6 7 6 6 5 7 11 12 10 6 5 7 5 7 7 6 6 6 6 8 7 7 7 7 8 9 9 8 7 8 8 7 7 8 9 9 10 8 9 9 8 8 9 8 8 8 8 8 6 5 4 4 6 7 6 7 6 6 7 7 7 7 6 8 8 8 7 7 6 7 6 5 6 6 5 6 6 5 5 4 4 4 3 4 3 2 3 1 0 0
9 10 8 4 4 6 5 1 6 11 7 7 7 10 11 10 11 9 5 7 6 6 5 5 5 4 7 7 7 6 7 8 7 8 8 8 8 9 8 7 8 8 9 10 10 8 9 8 7 9 9 9 7 6 7 7 6 7 6 5 5 7 6 6 6 6 6 7 7 7 7 8 8 8 8 7 7 7 6 6 7 5 5 6 6 6 6 6 6 5 4 4 3 1 2 1 0
4 7 6 5 3 2 6 4 5 5 3 7 8 9 10 7 9 10 12 6 6 6 7 6 5 5 5 6 7 8 7 8 6 7 10 10 10 9 8 6 7 7 7 9 10 9 10 10 8 11 11 10 8 8 8 8 8 7 6 7 7 6 7 7 7 7 6 6 7 7 8 8 8 9 9 8 8 8 7 7 7 6 6 7 7 7 6 6 7 7 6 5 4 3 3 3 2
5 4 3 5 3 4 0 6 4 3 3 3 5 8 10 10 9 7 6 9 10 10 8 7 7 6 6 7 7 8 8 5 5 5 7 8 8 8 7 6 6 9 9 9 11 12 10 10 11 10 10 11 11 9 8 8 8 8 9 9 7 7 8 9 8 7 8 6 6 9 9 9 10 9 10 9 9 8 8 7 7 7 7 7 7 7 6 6 5 5 5 4 4 5 3 5 4
8 4 1 2 4 3 5 7 3 3 1 6 5 7 9 10 10 9 9 8 6 8 9 7 8 8 8 8 9 7 6 7 6 7 7 8 9 9 8 7 8 10 10 10 10 10 11 11 10 10 9 11 11 11 10 10 9 8 8 7 9 7 6 7 8 8 8 8 8 6 7 8 9 8 9 10 9 9 9 8 7 7 7 8 7 7 7 8 7 6 6 6 5 4 3 2 5
5 3 3 3 2 4 2 4 5 4 4 1 1 5 8 7 5 8 8 9 9 7 9 9 9 10 11 10 9 9 9 8 8 9 9 8 9 9 8 9 10 8 8 8 8 11 10 10 10 11 11 10 11 12 11 9 9 9 9 7 7 7 5 5 6 6 7 8 9 7 6 7 7 8 8 9 9 9 10 10 8 7 8 8 8 8 7 8 7 7 6 7 5 4 3 4 3
5 4 4 3 3 3 1 3 2 3 4 3 4 6 9 9 11 11 11 11 10 11 9 8 7 8 7 7 7 10 11 11 10 9 9 9 9 11 13 12 9 10 10 11 11 11 10 13 13 12 11 12 11 11 12 9 8 7 8 6 5 6 4 5 6 8 9 9 9 9 9 8 9 9 9 9 9 10 10 9 9 9 8 8 8 8 8 8 7 7 8 6 7 6 6 4 4
5 5 4 4 4 4 9 4 3 1 3 3 3 3 4 3 10 12 7 7 13 11 12 12 9 8 8 8 8 7 8 10 12 12 13 14 14 12 11 10 11 11 12 12 12 13 10 9 10 10 9 9 10 10 11 10 9 9 9 9 10 9 10 9 11 12 11 11 12 9 9 10 10 9 9 9 9 9 10 10 9 9 8 8 8 8 7 7 7 7 8 7 8 7 6 6 4
4 5 7 8 11 3 8 6 2 2 3 0 0 4 6 3 3 2 5 7 10 9 12 13 13 13 12 12 11 10 9 7 7 8 9 12 12 12 12 12 13 13 14 11 9 10 10 9 9 10 10 9 8 8 10 10 10 9 11 12 11 11 11 10 8 7 9 9 8 10 10 10 10 10 10 9 9 10 10 9 10 9 9 8 8 7 8 9 8 8 7 8 8 8 6 6 8
5 1 5 11 13 2 2 1 2 3 2 2 3 2 4 8 6 5 6 4 7 9 12 15 14 13 13 12 12 11 11 11 11 10 9 10 13 14 15 16 14 16 13 10 11 10 12 12 10 12 10 10 9 8 11 12 12 11 11 11 11 12 12 11 10 9 8 7 9 10 9 9 11 11 11 10 10 10 10 10 10 10 10 9 9 9 9 8 7 7 8 9 8 8 9 8 7
1 2 2 4 4 1 2 3 2 1 5 4 3 1 1 6 3 5 7 6 8 10 9 10 13 13 13 13 13 13 13 13 13 12 12 11 10 12 12 12 14 11 9 11 12 12 11 10 10 10 12 11 10 12 12 13 13 12 12 11 11 10 10 9 6 7 8 8 8 8 9 9 10 10 10 10 10 10 10 10 10 10 10 10 9 8 8 8 9 8 8 8 8 7 8 8 7
1 1 4 3 3 2 2 2 1 2 1 4 4 5 3 11 6 4 5 8 11 11 10 10 10 11 12 12 12 13 12 11 11 13 12 12 10 9 10 8 7 9 9 7 6 6 8 8 11 12 12 11 11 12 13 13 14 12 12 13 13 11 8 6 6 7 8 8 9 7 7 8 9 8 8 8 9 9 8 9 10 10 10 9 8 9 8 8 8 8 8 8 8 8 6 7 7
4 7 8 6 4 3 3 3 1 1 6 4 4 6 3 8 3 9 8 8 9 6 5 8 9 8 8 9 10 9 8 9 9 9 8 8 8 8 7 8 8 7 8 8 8 8 7 9 10 12 13 10 11 12 12 13 13 13 13 13 13 12 10 8 7 8 7 7 9 9 8 7 7 8 8 8 8 8 8 7 9 9 8 8 8 8 9 9 9 8 8 8 8 9 7 7 6
8 3 5 6 4 4 1 0 1 2 4 2 6 7 9 7 3 3 6 1 7 10 8 10 7 7 10 10 10 11 10 7 6 6 4 5 5 5 5 6 6 7 7 8 8 8 9 9 9 11 10 11 10 11 12 13 12 12 12 12 11 11 9 8 10 10 9 9 9 9 8 7 7 8 8 8 9 10 9 9 9 9 9 8 9 8 8 8 8 7 7 8 8 7 7 8 8
6 8 8 7 3 2 3 3 3 5 4 1 4 5 3 16 10 7 3 2 4 6 8 6 5 7 2 2 0 0 2 4 5 5 5 5 5 5 5 5 5 6 9 9 9 8 8 8 9 10 11 11 10 9 10 11 10 11 11 10 9 7 8 8 9 9 8 9 8 8 8 10 8 8 9 10 10 11 10 10 10 10 10 9 8 8 8 8 7 7 7 8 8 8 8 8 8
9 10 9 8 5 4 6 4 2 2 1 2 4 3 7 2 6 15 20 13 7 6 5 5 6 2 4 4 5 4 4 4 4 4 4 5 6 6 7 8 8 8 8 9 8 8 7 7 8 10 11 8 8 8 9 10 11 11 9 9 9 8 8 8 8 9 9 8 8 8 9 9 10 11 10 11 9 10 10 11 10 10 10 9 10 9 9 8 8 7 7 8 8 8 8 10 10
7 4 8 6 5 3 6 4 6 4 2 0 1 2 6 6 5 3 5 3 5 5 6 6 2 0 3 4 5 5 4 4 5 5 6 7 8 7 7 6 6 6 6 6 6 7 6 7 8 10 9 8 8 10 8 10 10 9 9 9 9 8 9 9 9 8 8 8 8 8 8 7 9 9 10 8 8 10 10 10 10 10 9 8 9 9 8 8 8 7 7 8 8 8 10 10 10
1 1 4 4 7 1 2 1 1 2 1 1 2 6 2 3 3 6 5 3 4 3 2 2 2 3 2 2 3 5 5 5 6 6 7 7 6 5 5 5 5 5 5 5 5 5 5 6 5 5 6 5 5 7 7 8 7 7 7 9 9 8 8 8 8 7 7 7 8 9 9 8 7 7 8 8 9 10 10 10 10 11 9 8 9 10 9 8 8 9 8 9 9 7 9 12 10
8 6 8 4 2 0 1 2 1 1 2 8 4 5 6 5 9 12 9 6 6 5 6 5 5 5 4 5 5 5 6 6 5 6 5 5 4 4 4 4 3 3 3 4 3 3 4 4 3 4 5 4 5 5 5 5 5 5 7 7 7 7 7 7 7 6 6 5 6 7 8 8 6 7 7 8 9 10 10 11 10 11 11 10 9 10 10 10 10 9 9 10 10 8 8 10 8
6 8 8 4 5 2 2 4 1 2 6 5 7 7 3 1 7 5 11 8 6 5 7 7 6 5 5 6 5 5 5 5 5 4 4 4 4 5 4 3 4 4 4 3 2 1 1 1 2 3 3 5 5 4 5 5 5 5 5 5 5 6 6 6 6 6 6 7 7 6 6 7 9 7 6 6 8 9 9 9 10 10 10 11 11 10 9 9 9 8 9 9 9 8 7 6 6
10 6 5 8 3 5 3 2 5 3 5 4 4 6 6 9 7 1 3 7 8 6 6 6 6 6 6 6 5 5 4 4 4 4 4 4 4 3 4 5 4 4 4 4 3 2 1 0 0 1 4 5 5 4 4 3 4 4 4 5 5 6 6 6 6 6 6 6 7 7 7 8 6 7 7 6 6 6 7 7 8 8 8 9 9 9 9 9 9 8 8 8 7 7 7 7 6
2 2 7 4 2 0 6 8 1 3 6 1 4 6 6 6 6 8 8 11 10 7 6 8 8 8 7 6 5 5 5 5 5 5 5 4 4 5 5 5 5 5 4 4 4 3 2 2 2 1 1 1 1 5 5 5 5 4 3 3 3 3 5 5 5 5 7 7 6 5 5 5 5 4 5 4 4 4 4 5 5 5 6 6 7 7 9 9 9 8 8 8 6 8 8 8 6
5 7 8 6 2 1 2 1 5 4 2 3 3 4 5 5 9 11 10 10 11 8 6 4 5 7 8 7 7 5 5 4 4 4 4 4 4 4 4 4 5 4 4 4 4 5 5 4 4 4 4 3 2 3 2 4 2 1 0 1 2 2 3 2 2 3 4 4 3 2 2 1 0 2 2 4 4 4 4 5 6 6 7 7 7 7 7 8 9 9 8 10 9 8 8 6 6
9 10 11 12 9 4 8 8 3 3 3 5 2 9 1 5 0 5 5 4 4 4 6 5 5 5 6 5 5 5 4 2 4 4 4 4 4 5 5 5 4 5 5 5 5 4 5 5 4 4 4 4 4 4 2 1 2 2 3 3 3 3 3 3 3 3 4 3 3 2 2 2 3 4 4 5 5 4 4 6 7 6 6 7 7 8 8 9 9 9 8 7 9 10 9 8 7
Wind_Direction
292 266 243 257 264 267 305 268 279 201 176 234 99 76 79 50 107 140 87 161 115 18 52 49 36 48 29 44 85 82 38 50 25 262 134 152 193 115 91 102 112 111 115 119 124 120 102 109 114 117 119 115 111 105 102 98 98 100 103 100 93 88 86 90 87 83 84 85 84 86 83 82 85 80 75 78 81 78 80 81 79 79 80 80 79 77 77 76 75 75 74 72 70 68 66 64 62
279 283 285 271 275 347 278 171 250 285 230 68 62 102 116 101 240 118 170 69 59 97 89 57 56 62 107 21 117 108 55 60 54 85 108 117 124 117 107 117 129 119 113 130 140 129 112 115 118 121 120 121 115 109 105 102 101 101 98 93 94 96 98 92 89 90 84 83 81 84 87 91 89 84 82 81 80 79 80 84 89 84 81 82 80 76 74 73 74 74 74 73 71 68 66 64 61
303 312 304 252 246 202 284 283 268 275 256 101 70 77 155 138 125 70 71 81 85 85 69 62 69 1 31 193 61 54 107 88 89 87 87 134 133 123 133 119 112 123 138 138 134 122 114 116 121 124 124 123 116 113 110 104 100 99 100 98 93 91 94 96 95 96 94 88 88 90 97 91 89 88 88 84 80 76 79 79 80 80 81 81 82 79 78 78 75 74 74 73 71 68 66 64 62
282 276 264 326 311 204 259 246 232 280 331 106 87 78 103 94 80 86 76 83 109 104 111 123 159 21 1 42 83 87 84 62 93 127 125 174 113 143 124 108 118 118 124 119 114 99 101 122 124 126 126 125 121 117 114 108 103 99 91 94 94 97 93 91 94 92 92 93 90 86 88 92 92 90 88 85 81 80 81 85 84 82 83 82 82 82 78 77 78 76 72 71 69 66 65 64 62
265 259 230 287 312 289 315 286 273 321 25 345 99 120 75 96 99 89 87 85 94 113 186 114 106 23 94 38 20 57 76 113 109 115 140 141 124 123 98 119 102 109 111 111 106 96 108 119 122 128 128 129 123 118 113 111 107 100 97 96 99 97 95 95 96 96 95 94 98 99 99 96 100 95 93 93 85 78 79 85 90 93 90 85 81 79 79 77 76 74 73 71 69 67 65 63 61
259 259 235 168 224 1 331 300 286 50 7 21 71 57 45 94 100 103 101 83 47 49 11 232 31 167 83 48 19 97 300 83 124 86 95 118 125 104 114 121 127 135 118 107 102 105 115 119 123 132 133 131 121 118 113 112 114 112 107 100 97 95 101 102 104 103 102 101 93 92 89 89 88 87 89 91 86 84 82 78 77 75 74 78 79 78 78 79 78 76 74 71 69 67 65 62 60
309 345 228 165 281 148 252 246 265 106 22 12 51 87 79 90 100 114 112 101 78 69 20 330 115 140 113 110 82 47 29 3 157 126 117 117 109 114 152 123 139 134 123 96 91 102 118 119 127 132 132 129 121 121 119 115 115 113 114 110 107 106 106 105 102 105 105 101 102 97 95 91 89 88 86 91 90 88 81 83 82 84 82 78 79 80 78 78 77 75 73 70 68 67 65 62 60
269 236 340 8 307 219 241 262 291 79 35 51 34 52 82 104 120 121 139 167 146 174 197 17 8 340 86 190 102 98 75 74 95 103 112 110 106 141 157 126 130 140 98 96 98 107 120 122 129 133 129 125 128 126 121 119 118 120 124 118 112 111 113 112 110 101 97 104 104 103 100 98 98 98 103 98 93 88 87 86 84 84 83 81 78 78 80 79 79 77 74 72 70 68 65 63 61
268 203 211 306 250 238 276 265 109 106 118 97 72 49 358 107 141 124 121 64 137 104 171 164 99 275 107 90 89 96 77 86 88 103 113 114 129 163 128 128 137 97 94 99 108 116 115 125 129 122 116 120 123 123 122 122 117 119 117 112 112 114 114 113 109 105 106 108 106 105 102 100 99 97 99 96 94 89 89 87 85 83 81 81 81 82 82 81 79 77 74 72 70 69 66 63 59
277 143 311 278 310 280 210 243 72 64 91 57 109 113 87 128 119 162 126 148 102 149 89 74 79 320 167 102 120 133 115 104 120 110 123 123 148 142 121 126 126 110 113 119 117 116 117 126 119 107 105 106 107 110 117 122 125 122 123 113 116 119 114 105 109 114 104 105 106 104 106 106 100 101 101 95 93 94 92 87 84 82 82 80 79 80 82 83 82 80 77 75 72 69 66 64 59
303 165 192 338 262 260 228 173 114 153 105 111 84 109 111 108 138 145 146 96 157 112 110 109 175 209 345 79 73 59 113 114 134 130 132 129 138 106 106 119 128 113 114 111 113 117 123 122 106 97 96 94 99 102 101 110 124 130 117 117 116 119 117 112 104 103 108 109 112 114 106 98 98 95 90 88 103 101 95 93 91 89 86 84 83 79 77 78 78 79 77 75 72 69 66 62 57
311 239 108 248 269 268 23 14 110 108 125 117 95 123 114 135 91 160 112 132 152 124 140 199 11 31 202 116 128 145 121 137 133 131 124 124 127 91 95 108 121 102 106 117 122 121 123 126 111 102 98 90 84 82 82 85 96 105 111 118 120 124 121 116 111 109 113 118 105 96 98 103 97 78 61 55 73 94 101 98 98 96 92 89 89 87 84 79 79 80 78 74 71 69 66 60 54
276 304 227 235 262 302 30 1 74 81 92 64 132 93 173 114 204 119 112 79 112 154 137 146 88 320 143 89 122 129 145 140 134 123 115 148 113 100 109 135 132 117 127 134 122 127 133 131 119 118 109 95 82 74 70 71 74 89 120 121 124 121 120 117 122 111 101 100 97 94 94 92 87 76 69 62 57 52 49 73 91 95 95 92 89 89 86 83 82 81 79 76 74 71 66 62 57
248 273 325 271 247 252 291 343 61 159 70 92 23 153 170 141 227 27 114 160 140 90 39 88 310 349 100 111 134 150 140 145 137 124 142 126 92 113 117 154 119 127 140 124 129 138 141 138 129 125 128 119 115 93 71 66 79 90 104 110 112 114 118 105 94 95 93 92 91 92 88 85 80 73 67 62 60 58 55 71 91 92 91 90 86 86 85 86 83 81 78 77 75 74 71 67 64
312 330 3 281 303 331 188 272 175 128 88 76 69 183 153 48 21 12 26 54 58 98 96 41 26 328 57 216 158 158 147 135 123 127 126 108 112 106 104 77 58 103 150 134 138 141 147 142 142 147 149 136 138 124 117 80 84 96 101 104 105 107 93 95 101 99 101 93 97 97 89 88 82 78 67 61 60 62 67 65 74 89 94 93 95 91 92 90 86 80 77 78 77 77 82 79 73
289 22 339 276 272 233 162 215 10 82 85 74 324 2 135 84 40 345 50 11 94 66 206 67 20 13 56 55 137 137 134 126 127 117 110 112 118 100 99 111 91 99 219 133 135 144 147 144 149 161 161 155 160 141 125 117 98 103 106 111 113 112 110 108 109 107 106 108 110 111 108 102 98 92 86 69 64 64 66 70 71 88 104 105 107 102 97 93 89 82 76 79 81 87 101 113 118
275 122 271 234 279 238 149 239 133 63 124 97 180 179 177 134 131 49 204 268 155 130 122 85 106 87 62 76 117 129 127 123 119 119 122 122 122 126 127 148 129 190 247 133 143 151 153 149 158 168 155 172 159 140 132 125 127 112 101 107 120 123 121 119 114 114 111 119 123 132 138 134 131 128 112 93 77 66 67 75 76 61 85 106 109 105 98 94 91 88 81 74 85 142 73 171 224
272 227 214 252 236 342 19 54 59 142 88 113 111 186 248 135 175 92 76 158 268 122 162 89 74 66 94 109 119 123 125 129 131 135 144 141 158 140 157 165 152 177 197 160 151 181 161 163 164 161 158 172 169 136 130 133 148 130 127 128 118 124 126 128 131 136 140 146 156 161 173 161 154 169 127 118 99 86 68 76 78 80 71 68 88 104 100 89 97 92 94 61 277 260 231 299 243
271 278 196 248 35 78 317 62 42 65 66 90 88 33 296 55 160 137 198 186 192 158 186 137 131 101 89 120 124 128 136 142 144 149 149 160 166 155 161 178 165 158 191 170 170 180 179 134 177 163 152 162 154 122 133 144 160 144 147 145 135 148 155 154 161 154 169 162 189 194 214 176 134 100 104 103 105 93 97 89 91 96 96 77 110 89 109 110 102 114 119 265 271 294 254 224 248
268 131 268 288 160 74 55 48 73 57 348 81 80 74 339 82 64 123 246 293 167 197 183 166 163 150 151 133 140 140 148 155 161 156 157 163 175 164 170 169 182 157 179 183 171 155 182 146 196 166 151 142 143 137 141 156 176 166 166 156 151 163 171 196 173 177 181 172 206 210 212 137 114 109 112 122 124 125 115 105 119 126 133 143 153 152 164 158 148 194 232 252 288 272 250 241 317
281 280 193 310 353 84 50 67 52 57 25 34 63 98 237 110 301 151 197 236 268 221 202 171 185 163 158 157 147 153 159 162 172 163 167 165 177 197 180 166 189 159 172 162 173 160 177 163 184 168 144 143 157 152 160 161 179 174 170 156 161 167 175 209 188 184 188 175 205 226 158 117 122 134 143 139 157 143 154 155 160 166 178 179 198 231 197 174 191 207 240 237 243 263 262 26 29
139 234 279 43 267 96 80 81 48 27 160 325 215 303 55 8 311 254 256 244 302 49 21 24 203 156 152 159 151 158 160 172 176 179 176 170 174 198 205 167 174 153 147 154 172 177 172 165 173 167 143 161 166 161 172 168 168 169 154 154 158 177 166 199 183 184 184 166 217 178 117 118 115 138 148 163 185 176 165 176 181 189 186 186 182 223 202 181 201 205 203 220 236 217 79 46 56
249 205 213 316 12 90 164 85 16 332 358 14 22 35 311 292 306 215 211 241 140 107 57 32 36 136 147 152 147 165 164 178 180 194 179 171 176 194 206 206 162 157 149 166 164 184 178 159 166 153 152 161 177 175 181 158 167 168 161 155 176 188 163 182 180 180 173 169 210 195 133 135 193 147 163 185 182 149 183 176 184 181 172 165 195 216 197 181 201 214 202 212 221 43 307 183 221
211 213 187 203 218 120 95 93 74 44 345 32 41 319 270 305 275 27 309 221 245 129 120 87 88 126 143 153 162 170 172 178 186 188 189 177 175 192 201 216 166 139 149 169 165 171 178 161 164 146 162 167 184 175 171 153 164 186 155 145 180 234 163 176 179 177 166 175 199 206 137 148 194 161 158 159 193 195 193 184 179 159 177 169 195 199 155 209 212 244 137 59 257 226 225 222 232
185 240 211 201 184 110 132 131 167 71 230 20 312 293 275 255 265 23 269 273 275 130 118 105 118 133 149 157 166 171 175 175 182 182 185 182 178 184 195 226 181 144 158 173 165 154 175 166 162 159 166 173 180 168 175 156 166 204 150 139 176 254 195 175 182 177 158 165 183 186 172 174 182 170 159 172 179 201 167 147 104 161 168 202 151 225 196 224 216 200 174 205 214 226 213 212 221
217 216 173 87 228 197 156 176 188 180 160 196 298 270 276 23 93 255 248 241 233 154 128 136 142 144 160 165 167 174 179 179 177 180 186 183 178 184 191 209 203 164 167 175 167 158 169 166 168 169 168 175 171 171 196 164 162 184 183 158 170 205 224 246 178 169 162 157 175 193 187 208 176 175 162 176 165 184 148 170 184 206 181 185 171 205 197 213 199 191 210 215 227 245 257 258 156
175 225 300 153 214 231 140 217 247 150 227 164 227 269 278 143 72 257 50 344 189 134 147 143 161 165 174 164 172 180 179 182 183 173 170 184 190 192 191 197 214 186 164 174 167 165 165 167 172 179 165 170 170 178 185 185 159 175 183 159 164 185 207 234 191 163 168 171 169 182 186 221 232 172 161 175 164 161 157 167 198 191 185 176 191 215 181 198 258 190 190 150 32 1 345 324 326
174 185 120 280 283 267 207 204 243 244 227 200 220 258 267 175 139 218 239 97 82 140 162 165 192 189 181 173 171 180 181 183 176 170 180 185 193 191 192 191 198 206 167 170 165 169 164 174 172 181 168 171 171 176 176 186 168 173 176 165 173 179 189 201 189 189 186 190 170 169 174 201 246 231 165 177 165 162 172 173 196 173 191 182 188 217 164 190 235 293 95 86 351 343 307 299 279
117 150 184 217 220 239 228 225 210 199 249 148 212 271 259 224 228 213 227 188 154 168 184 172 196 208 187 186 170 176 185 175 173 180 190 192 189 185 192 190 189 194 202 167 165 169 170 176 173 177 170 172 176 176 172 183 166 169 169 181 177 171 176 192 193 188 179 201 176 159 171 181 213 238 190 168 176 174 175 182 190 178 187 184 199 186 119 111 296 281 273 143 262 266 257 260 257
121 204 258 186 201 242 225 205 207 191 222 152 99 276 239 229 226 218 201 159 162 167 189 175 192 209 196 185 174 179 188 174 177 190 192 190 186 186 192 185 185 189 196 180 163 174 169 175 175 175 177 171 182 174 166 177 175 169 171 181 180 162 170 191 199 181 176 189 183 165 174 187 189 223 186 179 180 202 201 178 179 182 189 198 138 125 137 207 245 229 227 181 219 226 240 247 230
172 185 177 221 182 251 196 186 147 166 129 151 167 248 255 272 336 206 128 150 158 174 188 177 189 204 197 183 180 185 193 192 187 190 194 190 184 186 188 183 183 187 185 187 180 171 168 174 178 177 179 172 178 182 174 176 178 170 171 178 187 165 172 187 195 184 182 190 175 178 180 194 192 199 202 171 188 195 222 198 177 196 200 162 127 149 161 208 220 229 212 229 244 247 252 269 202
207 125 211 236 226 221 352 112 152 181 85 238 186 256 259 249 130 93 132 146 167 190 191 182 185 193 194 180 185 185 198 200 199 191 194 194 188 185 182 187 181 186 186 185 189 176 172 173 178 179 177 171 181 188 182 173 177 174 172 178 184 170 175 182 187 195 193 188 176 177 180 191 195 197 203 186 176 188 203 195 194 197 199 148 158 177 185 222 243 244 231 190 234 276 267 269 255
204 195 170 195 204 191 68 249 176 208 129 217 198 236 66 218 159 150 156 154 180 190 210 193 185 186 186 185 188 192 192 192 205 203 194 193 194 185 182 188 185 184 185 185 183 185 188 169 172 178 176 181 176 186 186 180 178 174 175 179 181 174 180 185 188 188 200 194 187 174 179 183 193 198 200 195 181 182 203 200 195 188 191 175 167 188 196 205 211 226 260 216 195 229 279 279 276
197 203 237 196 187 157 204 64 297 183 178 189 219 244 238 300 144 167 174 183 170 194 222 236 202 180 179 179 185 193 196 188 197 207 204 187 188 190 187 189 185 182 187 188 186 183 189 182 172 177 170 182 176 181 188 187 190 177 177 176 180 176 184 188 187 184 192 199 194 183 174 180 186 193 199 195 194 194 192 200 206 185 182 176 176 185 204 206 206 194 227 238 202 203 241 299 331
184 181 228 226 184 191 180 162 198 185 205 218 199 228 249 242 250 178 191 200 176 188 198 215 228 186 172 176 184 194 198 197 202 200 201 188 180 190 192 188 189 181 185 191 189 182 183 184 176 175 174 176 183 176 181 183 190 199 187 178 183 182 182 192 190 189 190 193 197 193 172 177 181 187 193 194 189 201 201 198 200 199 168 164 166 190 206 219 229 214 207 250 224 156 143 170 278
178 180 190 221 210 182 218 136 149 173 176 216 222 225 234 235 247 253 216 192 196 202 197 200 224 213 173 176 189 195 201 210 207 190 187 189 184 185 192 185 187 183 182 188 191 185 182 186 171 175 182 184 181 182 171 177 180 192 200 203 190 188 184 188 201 197 192 193 197 192 180 174 177 184 189 193 191 193 202 203 197 195 176 167 179 190 201 200 207 217 219 221 232 166 140 173 55
224 171 171 216 233 176 199 123 182 198 160 215 226 245 257 251 230 226 243 220 214 213 206 203 200 211 194 183 188 199 198 212 209 189 177 186 184 185 189 182 182 186 189 186 191 193 187 187 177 181 186 183 183 187 193 184 181 186 200 205 204 187 188 190 192 196 205 202 193 191 186 178 177 184 188 190 195 196 198 200 194 196 188 182 185 194 194 203 203 194 201 199 196 192 219 185 175
260 248 178 191 189 243 77 139 150 189 148 246 221 248 255 252 252 240 225 224 218 205 211 206 200 198 201 202 204 195 203 207 199 184 177 176 180 184 184 184 180 188 200 193 193 194 192 189 193 190 175 186 188 189 190 197 198 194 188 196 193 197 189 184 186 186 203 218 214 196 190 185 186 184 188 190 193 195 198 200 196 195 189 189 191 192 193 205 206 187 176 188 189 192 214 185 170
255 253 250 226 198 157 69 103 150 119 112 273 263 265 254 245 242 244 241 232 229 198 201 204 200 206 208 205 204 199 188 196 192 188 175 177 178 180 182 190 198 199 198 198 196 193 196 197 198 193 189 184 191 191 188 196 194 195 192 195 197 202 206 184 184 187 188 208 224 216 199 191 189 192 186 188 190 195 197 199 202 194 192 186 189 195 193 200 202 200 181 173 194 203 182 181 160
239 177 268 200 193 169 227 159 161 160 182 243 34 316 279 280 270 260 245 232 232 224 206 206 196 203 209 208 195 191 190 189 188 182 185 182 179 180 184 194 200 198 199 205 202 200 199 201 199 195 195 193 191 195 197 193 191 191 196 196 203 205 196 178 186 184 192 206 226 224 217 203 195 195 193 188 192 193 193 197 200 199 193 187 189 193 197 200 196 197 186 187 167 171 187 229 186
228 212 196 223 204 216 113 121 207 152 241 268 331 297 280 243 238 239 236 233 235 228 234 230 211 205 210 211 200 185 187 187 190 187 186 181 181 190 192 196 190 195 201 202 202 202 203 202 199 197 195 196 196 192 193 190 185 188 187 194 197 208 224 192 183 202 200 204 212 219 219 208 206 203 201 198 194 196 196 198 200 201 194 192 191 197 200 202 198 193 187 186 192 179 195 192 211
213 215 210 231 250 232 107 146 157 195 280 193 158 324 291 230 219 234 237 204 222 223 221 224 217 209 208 215 214 206 194 185 187 189 186 187 191 194 196 190 192 200 203 206 202 205 204 202 200 202 203 201 200 194 188 187 194 190 181 187 200 200 205 202 201 199 195 199 207 209 217 215 211 209 206 204 198 197 201 202 203 201 198 194 195 199 200 194 197 191 193 191 195 197 180 178 179
189 200 193 240 252 260 136 149 110 283 246 317 33 183 268 357 319 248 223 211 218 212 217 227 220 212 208 210 208 207 200 203 201 196 186 185 194 189 194 193 197 199 209 200 198 202 202 201 197 198 202 203 199 193 185 188 196 200 199 199 201 202 204 212 209 198 198 203 196 203 208 213 214 212 212 207 204 199 202 204 205 207 206 201 197 197 199 199 196 197 191 191 194 191 184 175 178
223 41 195 212 236 170 70 58 167 270 92 205 177 183 272 288 256 257 270 234 226 217 212 218 223 222 218 214 211 209 206 203 203 206 203 192 190 188 192 198 196 203 201 185 198 197 199 200 193 196 199 201 197 189 186 190 198 201 204 208 207 210 209 210 199 202 197 191 198 202 202 208 210 211 210 210 207 201 201 204 205 208 209 208 199 203 200 194 193 197 191 190 190 190 192 183 178
234 320 49 183 168 208 153 130 273 214 71 291 166 72 320 250 265 206 206 229 233 233 225 221 219 218 217 216 216 216 211 206 198 203 208 208 195 196 195 196 203 200 182 192 195 197 196 196 197 195 199 199 198 192 193 191 196 199 205 211 216 219 215 214 196 194 198 195 202 199 199 203 207 208 206 206 205 205 199 204 204 207 208 206 198 199 196 191 195 195 193 190 190 180 183 183 165
274 124 62 63 75 29 111 124 170 260 126 237 169 163 231 274 234 229 214 218 229 225 222 232 223 213 211 216 220 219 214 211 206 202 204 204 204 197 196 191 183 192 192 192 193 188 194 194 199 199 205 200 196 196 196 197 195 195 205 212 216 217 212 210 193 200 198 191 205 203 196 195 198 203 205 202 205 207 203 201 206 210 210 205 195 197 195 197 200 200 196 189 181 174 177 178 178
149 93 88 75 59 69 49 41 30 35 252 223 191 177 159 293 207 198 184 219 212 213 223 225 232 231 223 218 217 216 214 209 208 207 202 196 192 188 169 167 178 172 178 178 184 188 188 196 201 203 209 200 198 200 195 201 196 198 208 210 213 215 207 202 200 206 194 191 201 206 206 197 191 199 201 212 210 208 211 204 208 212 208 203 197 197 199 199 199 196 187 182 181 179 179 180 186
139 121 127 94 41 74 72 38 66 222 245 137 185 180 173 218 270 259 225 313 195 195 214 224 228 226 222 214 210 212 211 204 197 190 164 132 113 111 135 158 156 164 164 179 186 185 189 196 198 207 209 205 202 201 199 203 201 203 208 209 212 214 204 203 207 208 202 202 201 204 206 203 200 197 201 209 215 214 212 214 209 209 208 203 203 198 198 198 191 182 172 180 183 184 180 181 192
136 137 138 137 163 115 203 156 214 214 240 223 182 181 236 236 253 272 298 224 256 200 209 214 224 232 211 47 2 112 95 108 121 138 140 145 164 173 176 194 183 176 185 189 190 190 193 194 199 203 213 207 204 198 201 203 204 210 207 209 215 208 207 207 208 211 206 207 202 202 198 207 202 201 205 205 210 208 210 212 206 208 209 209 205 197 196 186 178 176 170 176 183 186 187 187 195
160 166 161 159 165 174 218 176 215 281 49 325 72 42 260 336 269 230 240 232 214 219 229 233 235 243 106 142 113 99 103 120 130 147 168 190 196 202 201 198 198 204 202 195 195 193 196 199 202 205 216 205 204 203 204 204 208 210 207 206 209 205 212 210 211 209 209 209 204 208 204 204 204 207 202 208 199 199 205 208 206 208 207 205 203 198 189 183 176 176 177 180 190 196 191 196 201
173 144 167 190 165 166 193 175 206 196 174 192 199 113 229 134 257 293 273 239 246 237 217 215 209 122 145 128 131 138 164 185 173 176 190 201 207 199 200 197 202 209 209 203 196 202 196 209 208 213 217 212 205 208 204 207 207 204 204 205 204 202 210 211 214 207 201 203 204 209 212 205 204 205 204 200 189 197 202 202 205 206 201 194 187 186 187 184 179 175 181 188 192 193 197 197 201
243 158 31 220 216 78 180 175 88 124 122 256 247 207 256 234 312 286 243 245 248 260 256 168 217 234 232 229 191 192 201 204 200 202 212 215 205 196 189 189 185 182 189 190 198 190 198 214 221 236 233 229 218 211 211 208 206 200 202 207 209 206 206 207 213 210 208 200 202 205 212 211 205 195 199 186 194 195 198 201 202 207 203 195 187 183 184 187 187 187 187 187 195 191 196 196 196
185 151 211 203 340 218 116 17 146 92 24 247 161 293 295 279 286 273 266 235 239 216 229 217 228 204 197 230 240 216 209 213 208 204 203 191 177 182 179 170 156 154 169 186 194 189 193 199 210 231 237 234 229 226 219 209 204 199 208 206 205 207 204 207 210 214 217 217 209 210 209 210 206 202 199 192 192 196 197 200 201 202 198 195 192 190 185 188 190 190 186 185 187 185 188 194 181
124 199 203 114 58 68 126 205 82 213 238 263 145 212 278 206 286 239 229 238 232 206 208 208 202 194 198 224 225 217 214 205 186 163 156 159 164 170 168 159 166 167 168 153 137 93 98 145 182 208 229 223 233 223 219 210 204 208 209 209 209 205 206 211 209 212 213 215 221 215 210 207 210 206 197 197 198 199 203 202 205 203 200 195 195 194 188 187 187 189 184 183 179 173 177 159 169
186 176 129 157 213 209 205 105 240 196 234 264 221 199 230 181 233 27 247 228 238 218 207 185 196 191 207 223 221 216 190 149 147 166 162 159 162 174 168 170 161 131 129 138 126 114 126 80 1 197 212 215 214 219 216 224 205 204 207 210 209 214 212 211 213 212 213 218 220 218 208 213 209 204 200 199 204 205 207 208 209 208 201 199 197 194 187 185 183 179 177 173 161 161 159 162 162
345 132 187 228 59 260 158 197 9 118 247 179 288 153 248 190 227 191 207 213 225 219 200 194 190 191 194 207 200 189 172 180 177 162 160 163 171 176 178 160 160 159 140 121 121 124 151 176 172 232 340 4 203 203 205 210 213 199 208 211 225 223 223 217 216 214 223 228 233 231 231 217 216 194 199 185 190 199 204 208 214 209 209 205 201 193 184 180 176 176 168 157 160 153 155 160 160
180 173 182 187 187 285 96 235 187 167 197 216 264 279 275 240 214 205 201 200 215 208 201 195 202 186 192 187 183 175 169 164 159 152 151 155 161 147 140 131 124 114 121 140 155 167 167 162 175 192 197 207 212 228 197 196 171 186 74 285 285 300 286 281 260 243 242 255 264 269 281 289 43 216 173 177 193 191 192 204 211 213 208 204 199 195 191 181 181 179 172 162 156 157 155 157 155
186 182 187 181 161 127 171 236 175 216 184 237 215 251 289 275 267 195 215 191 153 173 167 187 190 173 164 148 146 147 136 156 153 152 152 155 160 148 126 116 136 143 156 166 178 167 169 174 188 191 203 201 200 225 217 172 163 192 230 239 251 279 294 304 291 290 278 281 285 291 266 275 233 227 181 187 194 203 199 201 212 215 215 208 204 195 191 186 185 175 162 157 159 159 162 161 161